| time (UTC) | temp F | wind direction | speed MPH | gust MPH | rain 1hr in | rain 24hr in | rain mn in | humidity % | barometer mb |
| 20260906041602 | 67 | 80 | 3.0 | 9.0 | 0.00 | 0.00 | 0.00 | 68 | 1020.3 |
| 20260906040104 | 67 | 92 | 2.0 | 5.0 | 0.00 | 0.00 | 0.00 | 67 | 1021.0 |
| 20260906034619 | 67 | 71 | 1.0 | 4.0 | 0.00 | 0.00 | 0.00 | 67 | 1021.5 |
| 20260906034548 | 67 | 71 | 1.0 | 4.0 | 0.00 | 0.00 | 0.00 | 67 | 1021.5 |
| 20260906033047 | 67 | 76 | 1.0 | 3.0 | 0.00 | 0.00 | 0.00 | 66 | 1021.4 |
| 20260906031544 | 67 | 75 | 1.0 | 5.0 | 0.00 | 0.00 | 0.00 | 66 | 1021.5 |
| 20260906030050 | 67 | 74 | 2.0 | 6.0 | 0.00 | 0.00 | 0.00 | 65 | 1021.6 |
| 20260906024546 | 67 | 86 | 1.0 | 4.0 | 0.00 | 0.00 | 0.00 | 65 | 1021.9 |
| 20260906023058 | 67 | 76 | 1.0 | 4.0 | 0.00 | 0.00 | 0.00 | 64 | 1022.1 |
| 20260906021544 | 67 | 71 | 1.0 | 2.0 | 0.00 | 0.00 | 0.00 | 63 | 1022.1 |
| 20260906020047 | 67 | 87 | 0.0 | 4.0 | 0.00 | 0.00 | 0.00 | 63 | 1022.3 |
| 20260906014555 | 67 | 0 | 0.0 | 1.0 | 0.00 | 0.00 | 0.00 | 62 | 1022.6 |
| 20260906013042 | 68 | 0 | 0.0 | 2.0 | 0.00 | 0.00 | 0.00 | 61 | 1022.7 |
| 20260906011552 | 68 | 68 | 0.0 | 3.0 | 0.00 | 0.00 | 0.00 | 61 | 1022.7 |
| 20260906010047 | 68 | 0 | 0.0 | 1.0 | 0.00 | 0.00 | 0.00 | 60 | 1022.8 |
| 20260906004544 | 68 | 0 | 0.0 | 0.0 | 0.00 | 0.00 | 0.00 | 60 | 1022.3 |
| 20260906003051 | 68 | 0 | 0.0 | 0.0 | 0.00 | 0.00 | 0.00 | 60 | 1022.5 |
| 20260906001544 | 68 | 0 | 0.0 | 0.0 | 0.00 | 0.00 | 0.00 | 59 | 1022.8 |
| 20260906000052 | 69 | 0 | 0.0 | 2.0 | 0.00 | 0.00 | 0.00 | 58 | 1022.7 |
| 20260905234553 | 69 | 0 | 0.0 | 2.0 | 0.00 | 0.00 | 0.00 | 57 | 1022.8 |
| 20260905233043 | 69 | 0 | 0.0 | 0.0 | 0.00 | 0.00 | 0.00 | 57 | 1023.1 |
| 20260905231543 | 70 | 0 | 0.0 | 2.0 | 0.00 | 0.00 | 0.00 | 57 | 1023.2 |
| 20260905230048 | 70 | 0 | 0.0 | 3.0 | 0.00 | 0.00 | 0.00 | 55 | 1023.1 |
| 20260905224552 | 70 | 67 | 0.0 | 4.0 | 0.00 | 0.00 | 0.00 | 55 | 1023.0 |
| 20260905223042 | 71 | 67 | 0.0 | 4.0 | 0.00 | 0.00 | 0.00 | 55 | 1023.0 |
| 20260905221551 | 71 | 84 | 1.0 | 7.0 | 0.00 | 0.00 | 0.00 | 55 | 1023.2 |
| 20260905220045 | 71 | 0 | 0.0 | 3.0 | 0.00 | 0.00 | 0.00 | 58 | 1023.2 |
| 20260905214546 | 71 | 66 | 0.0 | 2.0 | 0.00 | 0.00 | 0.00 | 59 | 1023.1 |
| 20260905213049 | 72 | 70 | 1.0 | 3.0 | 0.00 | 0.00 | 0.00 | 59 | 1023.1 |
| 20260905211543 | 72 | 80 | 1.0 | 3.0 | 0.00 | 0.00 | 0.00 | 60 | 1023.0 |
| 20260905210041 | 72 | 80 | 0.0 | 4.0 | 0.00 | 0.00 | 0.00 | 60 | 1023.0 |
| 20260905204639 | 72 | 79 | 1.0 | 4.0 | 0.00 | 0.00 | 0.00 | 61 | 1023.1 |
| 20260905203131 | 73 | 74 | 0.0 | 3.0 | 0.00 | 0.00 | 0.00 | 62 | 1023.1 |
| 20260905203042 | 73 | 74 | 0.0 | 3.0 | 0.00 | 0.00 | 0.00 | 62 | 1023.1 |
| 20260905201546 | 73 | 69 | 1.0 | 3.0 | 0.00 | 0.00 | 0.00 | 62 | 1023.2 |
| 20260905200055 | 74 | 26 | 0.0 | 3.0 | 0.00 | 0.00 | 0.00 | 62 | 1023.2 |
| 20260905194545 | 75 | 0 | 0.0 | 2.0 | 0.00 | 0.00 | 0.00 | 61 | 1023.1 |
| 20260905193042 | 75 | 0 | 0.0 | 1.0 | 0.00 | 0.00 | 0.00 | 60 | 1023.1 |
| 20260905191545 | 76 | 0 | 0.0 | 2.0 | 0.00 | 0.00 | 0.00 | 59 | 1023.1 |
| 20260905190050 | 76 | 0 | 0.0 | 2.0 | 0.00 | 0.00 | 0.00 | 59 | 1023.1 |
| 20260905184557 | 77 | 0 | 0.0 | 0.0 | 0.00 | 0.00 | 0.00 | 58 | 1022.9 |
| 20260905183047 | 78 | 0 | 0.0 | 2.0 | 0.00 | 0.00 | 0.00 | 57 | 1023.0 |
| 20260905181551 | 79 | 0 | 1.0 | 3.0 | 0.00 | 0.00 | 0.00 | 56 | 1022.9 |
| 20260905180049 | 80 | 83 | 2.0 | 7.0 | 0.00 | 0.00 | 0.00 | 54 | 1022.8 |
| 20260905174546 | 81 | 55 | 2.0 | 6.0 | 0.00 | 0.00 | 0.00 | 53 | 1022.9 |
| 20260905173044 | 81 | 65 | 1.0 | 6.0 | 0.00 | 0.00 | 0.00 | 53 | 1022.7 |
| 20260905171550 | 82 | 61 | 2.0 | 5.0 | 0.00 | 0.00 | 0.00 | 52 | 1022.9 |
| 20260905170048 | 82 | 92 | 1.0 | 8.0 | 0.00 | 0.00 | 0.00 | 53 | 1022.7 |
| 20260905164544 | 83 | 90 | 2.0 | 6.0 | 0.00 | 0.00 | 0.00 | 53 | 1022.8 |
| 20260905163051 | 83 | 5 | 1.0 | 8.0 | 0.00 | 0.00 | 0.00 | 54 | 1022.7 |
| 20260905161547 | 83 | 105 | 2.0 | 6.0 | 0.00 | 0.00 | 0.00 | 54 | 1022.8 |
| 20260905160045 | 82 | 11 | 3.0 | 8.0 | 0.00 | 0.00 | 0.00 | 54 | 1022.9 |
| 20260905154544 | 83 | 75 | 2.0 | 9.0 | 0.00 | 0.00 | 0.00 | 54 | 1023.0 |
| 20260905153054 | 83 | 360 | 2.0 | 8.0 | 0.00 | 0.00 | 0.00 | 54 | 1022.9 |
| 20260905151547 | 83 | 140 | 1.0 | 7.0 | 0.00 | 0.00 | 0.00 | 53 | 1023.2 |
| 20260905150046 | 83 | 360 | 0.0 | 5.0 | 0.00 | 0.00 | 0.00 | 55 | 1023.5 |
| 20260905144547 | 83 | 118 | 2.0 | 7.0 | 0.00 | 0.00 | 0.00 | 56 | 1023.5 |
| 20260905143048 | 83 | 116 | 1.0 | 6.0 | 0.00 | 0.00 | 0.00 | 56 | 1023.8 |
| 20260905141553 | 83 | 93 | 1.0 | 5.0 | 0.00 | 0.00 | 0.00 | 57 | 1023.9 |
| 20260905140046 | 83 | 87 | 1.0 | 6.0 | 0.00 | 0.00 | 0.00 | 57 | 1023.8 |
| 20260905134543 | 82 | 0 | 0.0 | 5.0 | 0.00 | 0.00 | 0.00 | 57 | 1024.0 |
| 20260905133047 | 81 | 349 | 2.0 | 6.0 | 0.00 | 0.00 | 0.00 | 57 | 1024.3 |
| 20260905131559 | 81 | 200 | 1.0 | 5.0 | 0.00 | 0.00 | 0.00 | 60 | 1024.4 |
| 20260905130049 | 80 | 136 | 0.0 | 5.0 | 0.00 | 0.00 | 0.00 | 60 | 1024.6 |
| 20260905124549 | 80 | 155 | 1.0 | 4.0 | 0.00 | 0.00 | 0.00 | 61 | 1024.8 |
| 20260905123049 | 81 | 89 | 0.0 | 4.0 | 0.00 | 0.00 | 0.00 | 60 | 1024.8 |
| 20260905121542 | 80 | 0 | 0.0 | 3.0 | 0.00 | 0.00 | 0.00 | 61 | 1025.0 |
| 20260905120049 | 80 | 59 | 0.0 | 6.0 | 0.00 | 0.00 | 0.00 | 61 | 1024.9 |
| 20260905114544 | 80 | 53 | 1.0 | 6.0 | 0.00 | 0.00 | 0.00 | 62 | 1025.0 |
| 20260905113043 | 79 | 0 | 1.0 | 4.0 | 0.00 | 0.00 | 0.00 | 63 | 1025.0 |
| 20260905111606 | 79 | 0 | 1.0 | 5.0 | 0.00 | 0.00 | 0.00 | 63 | 1025.1 |
| 20260905110051 | 78 | 36 | 0.0 | 4.0 | 0.00 | 0.00 | 0.00 | 65 | 1025.3 |
| 20260905104545 | 77 | 0 | 1.0 | 6.0 | 0.00 | 0.00 | 0.00 | 66 | 1025.3 |
| 20260905103042 | 76 | 0 | 1.0 | 4.0 | 0.00 | 0.00 | 0.00 | 68 | 1025.4 |
| 20260905101547 | 75 | 98 | 1.0 | 7.0 | 0.00 | 0.00 | 0.00 | 70 | 1025.6 |
| 20260905100046 | 75 | 19 | 1.0 | 5.0 | 0.00 | 0.00 | 0.00 | 71 | 1025.5 |
| 20260905094542 | 74 | 90 | 2.0 | 7.0 | 0.00 | 0.00 | 0.00 | 71 | 1025.5 |
| 20260905093043 | 74 | 351 | 1.0 | 7.0 | 0.00 | 0.00 | 0.00 | 72 | 1025.6 |
| 20260905091549 | 74 | 0 | 2.0 | 4.0 | 0.00 | 0.00 | 0.00 | 73 | 1025.5 |
| 20260905090046 | 73 | 118 | 0.0 | 3.0 | 0.00 | 0.00 | 0.00 | 76 | 1025.5 |
| 20260905084542 | 71 | 0 | 1.0 | 4.0 | 0.00 | 0.00 | 0.00 | 79 | 1025.5 |
| 20260905083042 | 69 | 0 | 0.0 | 1.0 | 0.00 | 0.00 | 0.00 | 84 | 1025.5 |
| 20260905081548 | 68 | 95 | 0.0 | 3.0 | 0.00 | 0.00 | 0.00 | 86 | 1025.4 |
| 20260905080042 | 67 | 0 | 0.0 | 3.0 | 0.00 | 0.00 | 0.00 | 87 | 1025.3 |
| 20260905074555 | 66 | 0 | 0.0 | 3.0 | 0.00 | 0.00 | 0.00 | 89 | 1025.2 |
| 20260905073058 | 66 | 0 | 0.0 | 3.0 | 0.00 | 0.00 | 0.00 | 91 | 1025.2 |
| 20260905071546 | 65 | 71 | 2.0 | 6.0 | 0.00 | 0.00 | 0.00 | 92 | 1025.1 |
| 20260905070044 | 64 | 92 | 1.0 | 5.0 | 0.00 | 0.00 | 0.00 | 95 | 1025.0 |
| 20260905064542 | 64 | 0 | 0.0 | 1.0 | 0.00 | 0.00 | 0.00 | 95 | 1024.8 |
| 20260905063044 | 63 | 0 | 0.0 | 3.0 | 0.00 | 0.00 | 0.00 | 95 | 1024.6 |
| 20260905061546 | 63 | 0 | 0.0 | 3.0 | 0.00 | 0.00 | 0.00 | 95 | 1024.5 |
| 20260905060043 | 63 | 0 | 0.0 | 0.0 | 0.00 | 0.00 | 0.00 | 94 | 1024.5 |
| 20260905054549 | 63 | 0 | 0.0 | 0.0 | 0.00 | 0.00 | 0.00 | 94 | 1024.5 |
| 20260905053110 | 63 | 0 | 0.0 | 0.0 | 0.00 | 0.00 | 0.00 | 94 | 1024.5 |
| 20260905051544 | 63 | 0 | 0.0 | 0.0 | 0.00 | 0.00 | 0.00 | 94 | 1024.3 |
| 20260905050049 | 64 | 0 | 0.0 | 0.0 | 0.00 | 0.00 | 0.00 | 94 | 1024.1 |
| 20260905044545 | 64 | 0 | 0.0 | 0.0 | 0.00 | 0.00 | 0.00 | 94 | 1023.9 |
| 20260905043044 | 64 | 0 | 0.0 | 0.0 | 0.00 | 0.00 | 0.00 | 94 | 1023.9 |